Weather History for Ponca City, OK

Change the Weather History Date:

Wednesday, May 13, 2009

  Actual Average Record
Temperature  
Mean Temperature 78 °F -  
Max Temperature 88 °F 76 °F 92 °F (1956)
Min Temperature 69 °F 53 °F 37 °F (1966)
Cooling Degree Days 14    
Growing Degree Days 28 (Base 50)    
Moisture  
Dew Point 64 °F    
Average Humidity 67    
Maximum Humidity 88    
Minimum Humidity 49    
Precipitation  
Precipitation 0.10 in - - ()
Sea Level Pressure  
Sea Level Pressure 29.64 in    
Wind  
Wind Speed 14 mph (South)    
Max Wind Speed 21 mph    
Max Gust Speed 38 mph    
Visibility 10 miles    
Events Rain , Thunderstorm    
Averages and records for this station are not official NWS values.
T = Trace of Precipitation, MM = Missing Value Source: NWS Daily Summary

Daily Weather History Graph

Daily Weather History Graph

Search for Another Location

Airport:

Trip Planner

Search our weather history database for the weather conditions in past years. The results will help you decide how hot, cold, wet, or windy it might be!

Date:

Astronomy

May. 13, 2009 Rise Set
Actual Time 6:22 AM CDT 8:27 PM CDT
Civil Twilight 5:53 AM CDT 8:56 PM CDT
Nautical Twilight 5:18 AM CDT 9:31 PM CDT
Astronomical Twilight 4:40 AM CDT 10:09 PM CDT
Moon 12:01 AM CDT (5/13) 9:37 AM CDT (5/13)
Length of Visible Light 15h 02m
Length of Day
14h 05m
Waning Gibbous, 82% of the Moon is Illuminated
May 13
Waning Gibbous
May 17
Last Quarter
May 24
New
May 30
First Quarter
Jun 7
Full

Hourly Weather History & Observations

Time (CDT) Temp. Heat Index Dew Point Humidity Pressure Visibility Wind Dir Wind Speed Gust Speed Precip Events Conditions
12:13 AM 69.8 °F - 66.2 °F 88% 29.67 in 10.0 mi SSE 20.7 mph 32.2 mph N/A   Overcast
12:53 AM 70.0 °F - 66.0 °F 87% 29.59 in 10.0 mi SSE 19.6 mph 38.0 mph N/A   Overcast
1:53 AM 72.0 °F - 66.0 °F 81% 29.55 in 10.0 mi SSE 20.7 mph 32.2 mph N/A   Overcast
2:19 AM 71.6 °F - 66.2 °F 83% 29.59 in 10.0 mi South 15.0 mph 26.5 mph N/A   Scattered Clouds
2:53 AM 71.1 °F - 64.9 °F 81% 29.58 in 10.0 mi South 9.2 mph - N/A   Clear
3:53 AM 70.0 °F - 64.0 °F 81% 29.55 in 10.0 mi SSE 9.2 mph - N/A   Clear
4:53 AM 70.0 °F - 63.0 °F 78% 29.57 in 10.0 mi SSE 6.9 mph - N/A   Clear
5:53 AM 70.0 °F - 59.0 °F 68% 29.57 in 10.0 mi South 6.9 mph - N/A   Clear
6:53 AM 73.9 °F - 57.9 °F 57% 29.58 in 10.0 mi South 11.5 mph 23.0 mph N/A   Clear
7:53 AM 73.0 °F - 62.1 °F 68% 29.59 in 10.0 mi South 12.7 mph 24.2 mph N/A   Clear
8:53 AM 73.9 °F - 64.9 °F 73% 29.61 in 10.0 mi South 11.5 mph 20.7 mph N/A   Clear
9:53 AM 77.0 °F - 66.0 °F 69% 29.60 in 10.0 mi South 12.7 mph 29.9 mph N/A   Clear
10:53 AM 79.0 °F - 66.0 °F 64% 29.61 in 10.0 mi South 16.1 mph 27.6 mph N/A   Clear
11:53 AM 82.0 °F 84.1 °F 66.0 °F 58% 29.61 in 10.0 mi South 10.4 mph 25.3 mph N/A   Clear
12:53 PM 84.0 °F 85.8 °F 64.9 °F 53% 29.60 in 10.0 mi SSW 16.1 mph 29.9 mph N/A   Scattered Clouds
1:53 PM 86.0 °F 88.2 °F 66.0 °F 51% 29.60 in 10.0 mi SSW 17.3 mph 29.9 mph N/A   Mostly Cloudy
2:53 PM 88.0 °F 90.7 °F 66.9 °F 49% 29.60 in 10.0 mi SSW 17.3 mph 26.5 mph N/A   Scattered Clouds
3:53 PM 87.1 °F 89.9 °F 66.9 °F 51% 29.60 in 10.0 mi SSW 13.8 mph 24.2 mph N/A   Mostly Cloudy
4:53 PM 86.0 °F 88.8 °F 66.9 °F 53% 29.60 in 10.0 mi SSW 11.5 mph 23.0 mph N/A   Mostly Cloudy
5:53 PM 87.1 °F 89.9 °F 66.9 °F 51% 29.62 in 10.0 mi SSW 9.2 mph 18.4 mph N/A   Mostly Cloudy
6:33 PM 84.2 °F 86.6 °F 66.2 °F 55% 29.63 in 10.0 mi South 8.1 mph - N/A Thunderstorm Clear
6:53 PM 84.0 °F 86.5 °F 66.9 °F 56% 29.60 in 10.0 mi Variable 4.6 mph - N/A Thunderstorm Thunderstorm
7:53 PM 75.9 °F - 70.0 °F 82% 29.69 in 9.0 mi WNW 10.4 mph 21.9 mph 0.10 in Rain , Thunderstorm Light Rain
8:25 PM 75.2 °F - 68.0 °F 78% 29.76 in 10.0 mi Calm Calm - 0.00 in   Scattered Clouds
8:53 PM 73.9 °F - 64.9 °F 73% 29.75 in 10.0 mi North 13.8 mph 19.6 mph 0.00 in   Scattered Clouds
9:10 PM 71.6 °F - 62.6 °F 73% 29.78 in 10.0 mi NNE 9.2 mph - N/A   Mostly Cloudy
9:53 PM 72.0 °F - 61.0 °F 68% 29.80 in 10.0 mi NNE 9.2 mph - N/A   Overcast
10:53 PM 72.0 °F - 57.0 °F 59% 29.86 in 10.0 mi North 17.3 mph - N/A   Overcast
11:53 PM 70.0 °F - 54.0 °F 57% 29.88 in 10.0 mi North 16.1 mph - N/A   Mostly Cloudy